Lid_Strength_Index
2 2 2 2 2 2 3 4 4 4 4 4 4 4 3 2 3 6 9 6 3 1 2 5 6 7 6 7 6 8 11 13 13 11 10 9 10 9 9 9 9 9 11 10 8
2 2 2 2 2 2 2 3 3 3 3 4 4 3 3 2 5 8 5 3 3 1 6 8 9 8 9 8 8 9 12 12 12 12 9 8 10 10 10 10 11 11 9 9 9
2 2 2 2 2 2 2 2 2 2 3 3 3 4 3 3 8 10 4 4 3 2 5 7 7 7 9 8 9 9 12 11 11 10 9 9 10 9 10 11 10 11 11 10 10
2 2 2 2 2 2 3 3 3 2 2 2 3 3 3 6 15 7 4 4 3 5 6 8 8 10 10 10 8 10 10 10 9 10 9 10 10 11 11 11 10 9 10 10 10
2 2 2 2 2 2 2 3 3 2 3 2 2 3 6 10 10 7 4 4 6 7 9 8 10 10 11 9 9 10 11 10 10 10 11 10 11 11 12 11 10 9 9 10 10
3 3 2 2 1 1 1 1 1 2 2 2 2 3 8 13 7 6 7 8 7 8 9 10 9 9 10 10 10 11 11 11 11 11 11 11 12 12 12 11 10 10 10 10 10
3 2 2 2 2 2 2 1 1 1 1 1 2 5 9 11 8 7 7 8 8 9 10 10 10 9 9 11 10 11 12 13 12 12 12 12 13 13 12 11 11 11 11 10 10
3 3 3 3 3 2 2 1 2 2 2 2 2 6 12 7 8 8 8 8 8 8 9 9 9 10 10 11 11 13 13 15 13 12 12 13 15 13 12 12 13 13 13 11 11
5 4 4 4 4 3 3 2 2 3 2 2 6 9 12 6 9 8 8 9 9 9 10 8 9 13 13 14 15 14 17 16 16 12 13 14 15 13 13 13 14 14 13 12 12
6 6 5 5 4 4 3 3 4 3 4 4 7 13 11 12 10 9 9 8 10 11 11 11 13 15 16 17 20 17 17 16 16 15 15 16 15 14 13 14 14 14 14 13 12
7 7 6 6 5 4 5 7 9 10 9 13 13 12 11 10 9 10 9 10 10 12 15 13 16 18 16 16 16 16 17 17 17 15 16 16 16 15 14 15 15 14 14 13 12
7 7 7 6 6 5 5 9 10 9 14 9 10 10 10 10 12 11 9 12 13 15 14 15 17 14 14 14 15 17 18 19 17 15 16 17 16 15 15 14 14 13 13 13 12
7 7 8 7 6 6 7 9 7 7 12 11 10 11 11 10 13 13 11 12 14 15 15 17 15 13 14 16 16 17 19 19 18 17 18 18 17 16 15 14 13 13 12 13 13
8 7 7 7 7 8 9 8 8 8 15 13 13 11 11 11 13 11 11 13 14 15 14 16 15 15 16 16 16 18 16 16 17 19 22 18 22 17 15 14 13 13 13 14 14
8 8 7 7 9 9 9 8 7 8 20 11 13 10 11 13 13 13 11 14 16 15 15 17 17 16 16 16 15 17 15 16 17 19 20 21 23 20 16 16 15 15 15 15 15
8 8 7 7 8 8 8 7 7 15 20 16 13 14 14 13 13 13 13 12 13 15 15 17 15 16 16 16 15 15 16 16 17 18 23 20 21 21 17 16 16 15 15 14 14
7 7 8 8 9 7 7 8 17 18 13 16 16 14 14 14 14 14 15 16 18 20 20 18 17 16 15 17 15 16 19 23 24 24 23 19 21 19 15 15 14 14 14 14 14
7 7 8 8 7 7 8 13 18 16 15 13 13 15 16 14 15 15 16 18 16 17 20 21 22 17 15 17 18 17 17 22 26 24 22 20 21 18 16 14 13 13 14 14 14
7 9 9 8 7 7 12 17 16 16 13 14 14 17 16 15 16 16 17 18 16 15 19 21 21 16 15 15 16 17 19 16 19 25 21 20 19 16 16 15 14 14 13 14 14
8 9 10 7 7 8 15 15 16 12 11 12 16 15 18 16 17 17 17 15 15 14 15 16 20 17 16 16 16 17 16 20 20 25 25 21 20 18 18 16 15 15 14 14 14
9 12 7 6 6 13 16 15 13 10 12 13 14 16 16 17 17 18 17 14 13 15 14 14 17 19 17 18 19 19 19 18 18 18 21 22 20 17 16 15 15 14 14 14 13
9 14 7 6 13 15 15 14 10 12 11 12 13 13 15 15 17 16 17 15 14 13 16 14 17 21 20 17 16 17 17 16 19 20 19 19 19 16 15 14 14 14 13 14 13
10 11 7 8 16 15 14 14 12 12 13 13 13 13 14 15 17 15 15 13 13 13 14 13 16 21 19 17 17 18 17 17 16 17 19 20 20 15 14 14 13 14 15 14 14
10 13 11 11 11 13 14 15 15 10 11 11 13 12 14 15 15 16 16 13 12 12 11 11 15 17 19 18 17 19 18 17 16 20 19 19 18 17 15 14 13 14 15 15 14
10 12 11 14 14 13 12 13 15 15 11 11 14 14 14 17 16 17 15 14 13 12 13 14 18 17 17 16 17 18 18 17 17 16 18 17 15 16 14 14 13 14 14 14 14
13 13 11 12 10 11 11 13 14 13 13 14 14 12 12 15 14 16 15 15 15 13 14 14 19 19 21 17 17 17 17 17 17 17 16 16 16 14 13 12 13 13 13 14 13
9 11 12 11 10 10 13 13 12 11 12 11 11 12 13 11 10 11 11 12 12 14 16 16 18 18 20 18 17 20 18 17 17 16 15 17 14 13 13 12 12 13 13 13 13